SCP
-0 0 0 0 0 0 0 0 0 0 0 0 0 0 0 0 0 0 0 0 0 0 0 0 0 0 0 0 0 0 0 0 0 0 0 0 0 0 -0 0 0 0 0
0 0 0 0 0 0 0 0 0 0 0 0 0 0 0 0 0 0 0 0 0 0 0 0 0 0 0 0 0 0 0 0 0 0 0 0 0 0 0 0 0 0 0
0 0 0 0 0 0 0 0 0 0 0 0 0 0 0 0 0 0 0 0 0 0 0 0 0 0 0 0 0 0 0 0 0 0 0 0 0 0 0 0 0 0 0
0 0 0 0 0 0 0 0 0 0 0 0 0 0 0 0 0 0 0 0 0 0 0 0 0 0 0 0 0 0 0 0 0 0 0 0 0 0 0 0 0 0 0
0 0 0 0 0 1 1 1 0 0 0 0 0 0 0 0 0 0 0 0 0 0 0 0 0 0 0 0 0 0 0 0 0 0 0 0 0 0 0 0 0 0 0
0 0 0 0 1 1 0 0 0 0 0 0 0 0 0 0 0 0 0 0 0 0 0 0 0 0 0 0 0 0 0 0 0 0 0 0 0 0 0 0 0 0 0
0 0 0 0 0 0 0 0 0 0 0 0 0 0 0 0 0 0 0 0 0 0 0 0 0 0 0 0 0 0 0 0 0 0 0 0 0 0 0 0 0 0 0
0 0 0 0 0 0 0 0 0 0 0 0 0 0 0 0 0 0 0 0 0 0 0 0 0 0 0 0 0 0 0 0 0 0 0 0 0 0 0 0 0 0 0
0 0 0 0 0 0 0 0 0 0 0 0 0 0 0 0 0 0 0 0 0 0 0 0 0 0 0 0 0 0 0 0 0 0 0 0 0 0 0 0 0 0 0
0 0 0 0 0 0 0 0 0 0 0 0 0 0 0 0 0 0 0 0 0 0 0 0 0 0 0 0 0 0 0 0 0 0 0 0 0 0 0 0 0 0 0
0 0 0 0 0 0 0 0 0 0 0 0 0 0 0 0 0 0 0 0 0 0 0 0 0 0 0 0 0 0 0 0 0 0 0 0 0 0 0 0 0 0 0
0 0 0 0 0 0 0 0 0 0 0 0 0 0 0 0 0 0 0 0 0 0 0 0 0 0 0 0 0 0 0 0 0 0 0 0 0 0 0 0 0 0 0
0 0 0 0 0 0 0 0 0 0 0 0 0 0 0 0 0 0 0 0 0 0 0 0 0 0 0 0 0 0 0 0 0 0 0 0 0 0 0 0 0 0 0
0 0 0 0 0 0 0 0 0 0 0 0 0 0 0 0 0 0 0 0 0 0 0 0 0 0 0 0 0 0 0 0 0 0 0 0 0 0 0 0 0 0 0
0 0 0 0 0 0 0 0 0 0 0 0 0 0 0 0 0 0 0 0 0 0 0 0 0 0 0 0 0 0 0 0 0 0 0 0 0 0 0 0 0 0 0
0 0 0 0 0 0 0 0 0 0 0 0 0 0 0 0 0 0 0 0 0 0 0 0 0 0 0 0 0 0 0 0 0 0 0 0 0 0 0 0 0 0 0
0 0 0 0 0 0 0 0 0 0 0 0 0 0 0 0 0 0 0 0 0 0 0 0 0 0 0 0 0 0 0 0 0 0 0 0 0 0 0 0 0 0 0
0 0 0 0 0 0 0 0 0 0 0 0 0 0 0 0 0 0 0 0 0 0 0 0 0 0 0 0 0 0 0 0 0 0 0 0 0 0 0 0 0 0 0
0 0 0 0 0 0 0 0 0 0 0 0 0 0 0 0 0 0 0 0 0 0 0 0 0 0 0 0 0 0 0 0 0 0 0 0 0 0 0 0 0 0 0
0 0 0 0 0 0 0 0 0 0 0 0 0 0 0 0 0 0 0 0 0 0 0 0 0 0 0 0 0 0 0 0 0 0 0 0 0 0 0 0 0 0 0
0 0 0 0 0 0 0 0 0 0 0 0 0 0 0 0 0 0 0 0 0 0 0 0 0 0 0 0 0 0 0 0 0 0 0 0 0 0 0 0 0 0 0
0 0 0 0 0 0 0 0 0 0 0 0 0 0 0 0 0 0 0 0 0 0 0 0 0 0 0 0 0 0 0 0 0 0 0 0 0 0 0 0 0 0 0
0 0 0 0 0 0 0 0 0 0 0 0 0 0 0 0 0 0 0 0 0 0 0 0 0 0 0 0 0 0 0 0 0 0 0 0 0 0 0 0 0 0 0
0 0 0 0 0 0 0 0 0 0 0 0 0 0 0 0 0 0 0 0 0 0 0 0 0 0 0 0 0 0 0 0 0 0 0 0 0 0 0 0 0 0 0
0 0 0 0 0 0 0 0 0 0 0 0 0 0 0 0 0 0 0 0 0 0 0 0 0 0 0 0 0 0 0 0 0 0 0 0 -0 -0 0 0 0 0 0
0 0 0 0 0 0 0 0 0 0 0 0 0 0 0 0 0 0 0 0 0 0 0 0 0 0 0 0 0 0 0 0 0 0 0 0 -0 -0 0 0 0 0 0
Wind_Speed
5 7 14 14 15 15 16 17 17 17 17 17 17 16 16 15 14 14 13 12 11 11 11 10 10 10 10 10 10 10 10 9 9 9 9 9 9 9 9 10 10 8 11
9 9 14 15 15 15 16 16 17 16 16 16 16 15 15 14 14 13 12 11 11 11 11 10 10 10 10 9 9 9 9 9 8 8 8 8 8 9 9 10 9 7 10
11 10 12 14 15 15 16 16 16 16 16 15 15 14 14 13 13 12 11 11 10 10 10 10 9 9 9 9 8 8 8 7 7 7 6 4 5 8 9 9 10 10 10
11 9 10 15 15 15 15 15 15 15 15 14 14 13 13 12 11 11 10 10 9 9 9 9 8 8 8 7 7 7 6 6 6 6 3 3 3 7 8 9 9 10 10
9 8 10 15 15 15 14 14 14 14 14 13 12 12 11 11 10 9 9 9 8 8 8 7 7 7 6 6 6 5 4 4 4 4 2 2 2 6 8 9 9 10 10
9 7 10 14 14 14 14 13 13 13 12 12 11 10 10 9 8 8 8 7 7 6 6 6 6 5 5 5 4 4 3 3 3 2 2 3 3 7 9 9 10 10 10
8 7 8 13 13 13 13 12 12 12 11 10 10 9 8 7 7 6 6 6 6 5 5 5 4 4 4 3 3 2 1 2 3 2 3 3 5 9 10 10 10 10 10
9 7 7 12 13 12 12 11 11 10 9 9 8 8 7 6 6 6 5 5 4 3 3 3 3 3 2 2 1 1 2 2 2 2 3 4 6 9 11 11 11 11 11
7 7 5 6 8 11 11 10 10 9 8 8 7 7 6 6 5 4 4 4 3 3 2 2 2 2 2 1 1 2 2 1 1 2 3 3 6 9 10 10 11 11 11
6 5 4 4 4 4 6 9 9 8 8 7 6 6 5 5 4 3 2 2 2 1 1 1 2 2 2 2 2 3 3 1 1 2 2 4 8 10 10 10 11 11 12
6 4 4 4 4 4 4 6 6 7 6 5 4 4 3 2 1 2 2 1 0 0 0 1 2 2 2 3 3 4 3 1 2 2 2 5 8 10 10 11 12 12 12
6 5 4 4 4 4 3 3 2 3 3 2 2 2 2 2 1 2 3 2 2 1 2 2 2 2 2 1 3 4 1 2 2 2 3 7 9 10 11 10 12 12 12
6 4 4 4 4 4 2 2 2 2 2 2 2 2 2 2 1 2 1 2 2 2 1 2 2 1 1 1 1 2 2 2 2 2 3 7 8 10 11 10 11 11 11
5 4 3 3 4 3 3 2 2 2 2 1 1 2 2 1 1 1 1 1 1 1 1 1 1 1 2 2 2 2 3 2 2 2 3 7 7 8 10 10 11 11 11
4 4 4 4 4 3 3 2 3 2 2 1 1 1 2 2 1 1 1 1 1 1 1 1 1 2 2 2 2 3 3 3 3 3 2 6 6 6 7 9 10 10 11
4 4 3 4 3 4 3 2 2 2 2 2 2 2 2 2 1 1 1 1 2 1 1 1 1 1 1 1 2 3 3 3 3 3 2 3 4 5 6 6 7 8 10
4 3 3 4 4 4 3 3 3 2 2 2 2 2 3 2 2 2 1 1 1 1 1 1 1 1 1 1 2 3 2 3 2 3 3 2 2 4 5 5 5 6 7
5 4 3 4 4 4 3 3 3 2 3 2 2 2 2 2 2 2 1 1 2 1 1 1 1 1 2 2 2 2 2 2 2 2 2 2 1 2 3 4 4 4 5
5 5 4 3 4 4 4 4 4 3 3 2 2 2 2 2 3 2 1 1 2 2 2 2 1 1 1 2 2 2 2 2 2 2 2 2 2 1 2 3 4 4 4
4 4 3 3 4 4 4 4 3 3 3 2 2 2 3 2 3 2 2 2 2 2 2 2 1 2 1 2 2 2 2 2 2 2 2 2 2 2 2 2 2 3 5
4 4 3 3 3 3 3 2 2 2 1 2 2 3 3 3 3 2 2 2 2 2 2 2 1 2 2 2 2 2 2 2 2 3 3 3 4 4 4 4 3 2 3
4 3 3 2 3 3 2 2 2 2 1 1 2 3 3 3 3 2 2 2 2 2 2 2 2 1 1 2 1 1 2 3 3 3 3 3 4 4 5 5 5 4 4
4 3 3 2 2 3 3 3 3 3 2 2 2 2 3 3 3 2 2 1 2 2 1 2 1 1 1 1 1 1 0 1 2 2 3 3 4 3 4 4 5 5 4
4 4 3 4 4 3 4 4 4 3 1 0 1 1 3 3 3 3 2 2 2 1 1 2 1 0 0 1 1 1 0 1 1 2 2 2 3 4 4 4 4 4 4
4 4 4 5 4 3 3 4 4 3 1 1 1 2 2 3 3 3 2 2 2 1 1 1 1 1 0 0 0 1 1 0 0 1 2 2 2 2 3 3 3 3 3
5 4 4 5 4 3 3 3 3 3 2 2 1 1 2 2 2 3 3 2 2 1 1 1 1 1 0 0 1 1 1 1 1 1 1 1 2 2 2 2 2 2 3
Wind_Direction
142 144 141 135 128 122 117 114 112 111 111 112 113 114 116 117 119 120 120 120 119 117 113 108 105 104 104 106 109 111 113 114 117 122 125 127 130 130 129 127 124 123 126
142 144 143 138 132 126 122 119 117 115 114 114 115 116 117 118 119 119 119 119 118 118 116 113 111 110 110 111 112 114 116 119 122 127 131 135 138 139 137 135 133 134 134
136 141 142 139 134 130 126 123 121 120 119 119 118 118 119 120 121 122 121 120 119 119 119 118 115 114 114 116 117 120 123 124 125 126 121 118 140 148 148 144 143 140 140
135 139 142 140 136 132 129 127 125 124 123 123 122 122 123 123 124 124 124 123 121 121 120 120 119 118 120 122 124 127 129 130 132 132 119 137 160 162 159 154 153 151 150
131 136 144 141 137 134 131 130 129 128 127 126 125 125 125 125 126 127 126 124 124 123 124 123 124 126 127 127 130 134 135 138 144 137 150 173 181 176 172 167 164 161 158
130 134 144 141 138 136 135 134 133 131 131 130 129 128 127 127 127 128 129 129 128 127 127 127 130 132 134 132 134 141 150 159 142 153 186 196 195 191 183 178 174 169 167
128 130 138 139 139 138 138 137 135 135 135 134 133 132 130 129 130 132 132 133 133 135 133 131 134 139 145 146 147 160 193 196 158 182 199 207 208 203 194 188 183 180 178
129 128 132 138 139 139 138 137 136 135 135 136 135 134 133 133 134 135 138 136 137 143 142 138 143 150 155 160 178 232 259 256 181 203 212 214 218 211 202 196 190 188 186
123 124 124 136 139 140 138 135 133 131 131 133 133 134 133 131 128 128 133 137 146 154 162 167 174 193 204 223 247 264 259 232 154 208 221 216 225 217 208 201 197 195 194
119 121 120 121 121 125 132 139 137 133 130 129 129 131 132 128 123 119 123 123 140 165 196 213 224 243 258 267 276 278 268 250 204 226 231 228 226 221 215 205 203 204 202
126 122 120 116 111 115 126 140 139 138 133 134 133 129 119 90 76 64 58 78 87 86 282 312 285 286 294 298 297 291 285 245 225 235 232 236 228 224 220 214 211 211 209
149 145 132 124 118 113 129 116 106 115 110 106 98 107 99 83 57 46 20 12 356 352 334 336 327 324 325 321 317 312 288 262 245 244 244 245 238 230 225 221 216 216 214
150 148 141 136 129 121 108 109 100 94 93 89 89 93 90 77 46 34 26 4 352 356 356 355 357 349 339 321 303 296 284 270 253 258 263 258 249 240 234 230 220 216 218
146 149 135 130 124 118 113 114 109 102 101 100 91 97 103 96 64 35 32 7 12 0 358 358 343 340 336 322 305 300 294 274 261 259 266 269 256 247 244 237 229 224 223
146 141 135 134 132 126 118 115 109 95 93 91 78 79 96 100 86 52 41 30 16 7 2 343 341 340 337 327 312 306 302 293 282 269 272 275 267 258 255 251 241 234 231
136 128 121 124 123 119 117 114 107 99 95 84 74 64 75 82 81 78 47 29 18 5 345 337 340 324 323 323 322 321 304 298 291 285 272 278 284 283 268 259 251 247 243
128 118 119 121 109 111 112 108 98 92 89 77 65 62 72 80 81 78 60 28 357 353 0 5 2 357 344 338 329 318 306 307 299 290 288 290 299 295 289 275 263 258 256
125 115 115 123 113 109 107 101 91 83 82 74 61 56 61 67 74 77 58 8 349 13 21 14 13 4 356 352 336 323 322 318 315 311 314 315 308 298 299 301 295 285 274
129 120 115 116 117 112 103 97 89 83 74 67 63 51 41 49 62 69 49 3 5 22 22 8 14 1 342 348 331 335 338 336 334 337 340 336 335 331 321 332 334 327 307
108 104 113 107 105 106 99 91 82 73 61 52 51 43 35 33 46 54 40 18 23 27 17 17 8 8 344 342 343 350 345 347 6 6 351 1 12 11 12 2 353 355 2
101 101 104 109 113 119 116 112 98 81 55 38 36 37 33 30 35 46 32 22 26 31 13 19 20 15 3 356 2 348 347 10 31 21 20 28 28 26 34 33 23 13 5
124 115 111 121 128 124 113 115 111 108 81 57 25 27 27 28 22 32 37 25 19 29 25 26 34 26 356 10 11 353 342 346 8 16 22 34 27 29 35 34 31 28 19
136 150 147 127 122 114 109 101 94 74 56 39 21 9 6 17 20 19 23 29 22 40 18 6 24 58 356 341 9 52 11 302 322 346 17 28 25 31 26 19 22 22 24
149 145 134 116 102 101 107 114 117 110 101 53 342 343 352 8 8 12 11 18 28 29 14 351 21 36 99 331 328 19 236 216 265 323 340 7 17 31 21 10 11 15 19
132 128 127 112 99 99 107 118 111 102 109 81 37 14 360 354 360 9 14 13 17 11 357 357 5 18 80 214 284 332 337 346 233 224 292 325 350 6 11 4 4 9 12
124 115 110 107 101 100 105 112 125 126 115 85 42 6 346 338 345 1 11 9 1 354 347 338 340 349 345 259 257 226 218 245 266 238 260 288 311 326 348 354 2 5 5